RYR798V EDDG-LEPA

Flight info

Callsign RYR798V
Flight time N/A
Altitude 24000
Route DOMEG1W DOMEG N853 ONUNE/N0434F360 N853 QATJA/N0434F380 Y841 KENUM DCT ARCKY DCT GESLO/N0431F370 DCT DIK N852 SUTAL DCT GTQ DCT POGOL DCT LASAT DCT MOROK DCT GILIR DCT GEVEA DCT INCUS DCT BALSI DCT RETNO DCT TUPOX DCT MTG DCT DIVKO DCT VATIR DCT PIVUS DCT BODEQ DCT VERSO L129 LUNIK
Aircraft B738/M-SDE2E3FGHIRWXY/LB1

Departure

Time 2026-04-15 07:40
Airport Münster Osnabrück Airport (EDDG)

Arrival

Time N/A
Airport Palma de Mallorca Airport (LEPA)
Time Latitude Longitude Altitude Speed Heading
2026-04-15 07:14 52.13158 7.69301 166 ft 0 kts 196°
2026-04-15 07:32 52.13168 7.69306 166 ft 4 kts 196°
2026-04-15 07:32 52.13194 7.69318 166 ft 4 kts 197°
2026-04-15 07:32 52.13218 7.69335 167 ft 4 kts 219°
2026-04-15 07:33 52.13235 7.69367 166 ft 4 kts 245°
2026-04-15 07:33 52.13240 7.69389 166 ft 1 kts 251°
2026-04-15 07:33 52.13241 7.69391 166 ft 0 kts 251°
2026-04-15 07:36 52.13239 7.69382 166 ft 2 kts 252°
2026-04-15 07:37 52.13240 7.69339 167 ft 5 kts 297°
2026-04-15 07:37 52.13271 7.69311 166 ft 6 kts 341°
2026-04-15 07:37 52.13321 7.69283 166 ft 11 kts 341°
2026-04-15 07:37 52.13405 7.69237 166 ft 14 kts 342°
2026-04-15 07:38 52.13467 7.69317 167 ft 13 kts 71°
2026-04-15 07:38 52.13496 7.69455 167 ft 13 kts 71°
2026-04-15 07:38 52.13524 7.69591 167 ft 13 kts 71°
2026-04-15 07:38 52.13557 7.69746 167 ft 16 kts 71°
2026-04-15 07:39 52.13595 7.69928 166 ft 17 kts 71°
2026-04-15 07:39 52.13682 7.70035 166 ft 17 kts 359°
2026-04-15 07:39 52.13772 7.69973 166 ft 9 kts 295°
2026-04-15 07:39 52.13759 7.69878 166 ft 9 kts 251°
2026-04-15 07:40 52.13686 7.69536 168 ft 68 kts 251°
2026-04-15 07:40 52.13449 7.68411 168 ft 140 kts 251°
2026-04-15 07:40 52.13093 7.66693 568 ft 163 kts 249°
2026-04-15 07:40 52.12714 7.64970 1494 ft 159 kts 246°
2026-04-15 07:41 52.12307 7.63235 2173 ft 175 kts 248°
2026-04-15 07:41 52.11878 7.61258 2700 ft 193 kts 248°
2026-04-15 07:41 52.11427 7.59125 3208 ft 207 kts 250°
2026-04-15 07:41 52.10962 7.56842 3734 ft 219 kts 250°
2026-04-15 07:42 52.10403 7.54397 4090 ft 242 kts 239°
2026-04-15 07:42 52.09166 7.52582 4767 ft 251 kts 203°
2026-04-15 07:42 52.07415 7.52087 5619 ft 255 kts 185°
2026-04-15 07:42 52.05615 7.51854 6363 ft 264 kts 186°
2026-04-15 07:43 52.03790 7.51554 7232 ft 265 kts 187°
2026-04-15 07:43 52.01947 7.51231 7896 ft 274 kts 186°
2026-04-15 07:43 52.00031 7.50982 8695 ft 278 kts 179°
2026-04-15 07:43 51.98097 7.51318 9534 ft 282 kts 172°
2026-04-15 07:44 51.96148 7.51871 10294 ft 287 kts 170°
2026-04-15 07:44 51.94135 7.52471 10711 ft 305 kts 171°
2026-04-15 07:44 51.91962 7.53102 10943 ft 327 kts 171°
2026-04-15 07:44 51.89681 7.53743 11519 ft 336 kts 171°
2026-04-15 07:45 51.87328 7.54388 12270 ft 340 kts 172°
2026-04-15 07:45 51.85013 7.55011 13041 ft 344 kts 172°
2026-04-15 07:45 51.82635 7.55642 13818 ft 349 kts 173°
2026-04-15 07:45 51.80222 7.56278 14524 ft 354 kts 173°
2026-04-15 07:46 51.77781 7.56920 15274 ft 357 kts 173°
2026-04-15 07:46 51.75319 7.57567 16023 ft 361 kts 173°
2026-04-15 07:46 51.72826 7.58220 16745 ft 365 kts 173°
2026-04-15 07:46 51.70259 7.58378 17426 ft 367 kts 192°
2026-04-15 07:47 51.67803 7.57283 18194 ft 367 kts 200°
2026-04-15 07:47 51.65393 7.56026 18834 ft 372 kts 200°
2026-04-15 07:47 51.62916 7.54728 19425 ft 377 kts 200°
2026-04-15 07:47 51.60408 7.53431 20027 ft 381 kts 200°
2026-04-15 07:48 51.57867 7.52137 20629 ft 385 kts 199°
2026-04-15 07:48 51.55296 7.50842 21209 ft 390 kts 199°
2026-04-15 07:48 51.52692 7.49538 21794 ft 394 kts 199°
2026-04-15 07:48 51.50059 7.48223 22365 ft 399 kts 199°
2026-04-15 07:49 51.47395 7.46893 22928 ft 403 kts 199°
2026-04-15 07:49 51.44703 7.45548 23491 ft 407 kts 199°
2026-04-15 07:49 51.41984 7.44191 24009 ft 411 kts 199°
2026-04-15 07:49 51.39279 7.42680 24445 ft 413 kts 207°
2026-04-15 07:50 51.36821 7.40309 24905 ft 412 kts 220°
2026-04-15 07:50 51.34735 7.37186 25388 ft 411 kts 233°
2026-04-15 07:50 51.33002 7.33552 25825 ft 412 kts 237°
2026-04-15 07:50 51.31307 7.29818 26219 ft 417 kts 237°
2026-04-15 07:51 51.29605 7.26056 26655 ft 420 kts 237°
2026-04-15 07:51 51.27882 7.22282 27125 ft 422 kts 237°
2026-04-15 07:51 51.26136 7.18494 27573 ft 424 kts 237°
2026-04-15 07:51 51.24371 7.14698 27990 ft 427 kts 237°
2026-04-15 07:52 51.22591 7.10888 28439 ft 429 kts 237°
2026-04-15 07:52 51.20798 7.07062 28876 ft 431 kts 237°
2026-04-15 07:52 51.18996 7.03222 29278 ft 434 kts 237°
2026-04-15 07:52 51.17180 6.99357 29668 ft 437 kts 237°
2026-04-15 07:53 51.15355 6.95477 30051 ft 439 kts 237°
2026-04-15 07:53 51.13515 6.91572 30411 ft 442 kts 237°
2026-04-15 07:53 51.11566 6.87761 30675 ft 448 kts 230°
2026-04-15 07:53 51.09208 6.84440 30942 ft 457 kts 220°
2026-04-15 07:54 51.06508 6.81714 31230 ft 464 kts 211°
2026-04-15 07:54 51.03582 6.79491 31561 ft 466 kts 208°